TimeEST,TemperatureF,Dew PointF,Humidity,Sea Level PressureIn,VisibilityMPH,Wind Direction,Wind SpeedMPH,Gust SpeedMPH,PrecipitationIn,Events,Conditions,WindDirDegrees,DateUTC
12:54 AM,37.9,37.0,97,29.86,8.0,Calm,Calm,-,N/A,,Overcast,0,2009-03-01 05:54:00
1:54 AM,37.9,37.0,97,29.85,5.0,SSW,3.5,-,0.00,,Overcast,200,2009-03-01 06:54:00
2:45 AM,35.6,35.6,100,29.84,5.0,Calm,Calm,-,N/A,,Overcast,0,2009-03-01 07:45:00
2:54 AM,36.0,35.1,97,29.83,8.0,Calm,Calm,-,N/A,,Overcast,0,2009-03-01 07:54:00
3:54 AM,36.0,35.1,97,29.82,10.0,Calm,Calm,-,0.00,,Overcast,0,2009-03-01 08:54:00
4:54 AM,36.0,34.0,93,29.80,10.0,NNE,5.8,-,0.00,,Overcast,20,2009-03-01 09:54:00
5:27 AM,35.6,33.8,93,29.80,10.0,NE,4.6,-,N/A,,Overcast,40,2009-03-01 10:27:00
5:38 AM,35.6,33.8,93,29.79,10.0,NNE,6.9,-,N/A,,Overcast,30,2009-03-01 10:38:00
5:51 AM,37.4,33.8,87,29.79,10.0,NE,6.9,-,N/A,,Overcast,50,2009-03-01 10:51:00
5:54 AM,37.0,33.1,86,29.78,10.0,Variable,3.5,-,N/A,,Overcast,0,2009-03-01 10:54:00
6:18 AM,35.6,33.8,93,29.80,10.0,Calm,Calm,-,N/A,,Overcast,0,2009-03-01 11:18:00
6:54 AM,37.0,34.0,89,29.81,10.0,ESE,3.5,-,N/A,,Overcast,120,2009-03-01 11:54:00
7:05 AM,37.4,33.8,87,29.81,10.0,Calm,Calm,-,N/A,,Overcast,0,2009-03-01 12:05:00
7:54 AM,36.0,33.1,89,29.82,10.0,NE,3.5,-,0.00,Rain,Light Rain,50,2009-03-01 12:54:00
8:54 AM,35.1,34.0,96,29.83,6.0,NNE,3.5,-,0.08,Rain,Rain,20,2009-03-01 13:54:00
9:17 AM,35.6,35.6,100,29.75,10.0,North,6.9,-,0.03,Rain,Light Rain,10,2009-03-01 14:17:00
9:27 AM,37.4,35.6,93,29.75,10.0,NNW,9.2,-,0.03,Rain,Light Rain,340,2009-03-01 14:27:00
9:46 AM,37.4,35.6,93,29.72,10.0,North,8.1,-,0.03,Rain,Light Rain,350,2009-03-01 14:46:00
9:54 AM,37.0,36.0,96,29.73,10.0,NNW,12.7,-,0.03,,Overcast,340,2009-03-01 14:54:00
10:14 AM,37.4,35.6,93,29.77,10.0,WNW,11.5,-,N/A,,Overcast,300,2009-03-01 15:14:00
10:54 AM,37.9,36.0,93,29.73,9.0,North,9.2,-,0.01,Rain,Light Rain,360,2009-03-01 15:54:00
11:01 AM,37.4,35.6,93,29.71,10.0,North,10.4,-,0.01,Rain,Light Rain,350,2009-03-01 16:01:00
11:10 AM,37.4,35.6,93,29.76,10.0,North,4.6,-,0.01,Rain,Light Rain,360,2009-03-01 16:10:00
11:54 AM,37.9,36.0,93,29.78,4.0,North,11.5,16.1,0.03,Rain,Rain,360,2009-03-01 16:54:00
12:09 PM,35.6,33.8,93,29.75,5.0,North,13.8,19.6,0.02,Rain,Rain,360,2009-03-01 17:09:00
12:18 PM,35.6,33.8,93,29.72,6.0,North,18.4,25.3,0.03,Rain,Rain,350,2009-03-01 17:18:00
12:25 PM,35.6,33.8,93,29.75,2.5,North,13.8,25.3,0.04,Rain-Snow,Snow,350,2009-03-01 17:25:00
12:33 PM,33.8,33.8,100,29.73,0.5,North,17.3,-,0.06,Snow,Snow,350,2009-03-01 17:33:00
12:54 PM,33.8,32.0,93,29.73,0.5,North,15.0,23.0,N/A,Snow,Snow,350,2009-03-01 17:54:00
1:06 PM,33.8,32.0,93,29.74,0.8,NNW,13.8,-,0.03,Snow,Light Snow,340,2009-03-01 18:06:00
1:54 PM,33.1,32.0,96,29.71,0.8,North,17.3,24.2,0.10,Snow,Light Snow,350,2009-03-01 18:54:00
2:24 PM,33.8,32.0,93,29.70,1.0,North,13.8,-,0.03,Snow,Light Snow,350,2009-03-01 19:24:00
2:35 PM,33.8,32.0,93,29.68,1.8,North,18.4,25.3,0.04,Snow,Light Snow,350,2009-03-01 19:35:00
2:44 PM,33.8,32.0,93,29.67,2.0,North,19.6,25.3,0.04,Snow,Light Snow,350,2009-03-01 19:44:00
2:54 PM,33.1,32.0,96,29.68,1.8,North,17.3,24.2,0.04,Snow,Light Snow,350,2009-03-01 19:54:00
3:06 PM,33.8,32.0,93,29.65,2.5,North,18.4,27.6,0.00,Snow,Light Snow,350,2009-03-01 20:06:00
3:14 PM,33.8,32.0,93,29.65,3.0,North,20.7,27.6,0.00,Snow,Light Snow,350,2009-03-01 20:14:00
3:36 PM,33.8,32.0,93,29.64,8.0,North,19.6,26.5,0.00,Snow,Light Snow,350,2009-03-01 20:36:00
3:54 PM,34.0,32.0,92,29.65,6.0,NNW,24.2,32.2,0.00,Snow,Light Snow,340,2009-03-01 20:54:00
4:54 PM,34.0,30.9,89,29.66,4.0,NNW,28.8,39.1,0.00,Snow,Light Snow,340,2009-03-01 21:54:00
5:04 PM,33.8,30.2,87,29.64,1.8,NNW,34.5,46.0,0.00,Snow,Light Snow,330,2009-03-01 22:04:00
5:13 PM,33.8,30.2,87,29.64,0.8,NNW,34.5,42.6,0.00,Snow,Light Snow,330,2009-03-01 22:13:00
5:30 PM,32.0,30.2,93,29.65,0.2,NNW,32.2,41.4,0.00,Fog-Snow,Heavy Snow,330,2009-03-01 22:30:00
5:38 PM,32.0,30.2,93,29.66,0.2,NNW,28.8,43.7,0.00,Fog-Snow,Snow,330,2009-03-01 22:38:00
5:44 PM,32.0,30.2,93,29.66,0.5,NNW,29.9,39.1,0.00,Fog-Snow,Snow,330,2009-03-01 22:44:00
5:51 PM,32.0,30.2,93,29.67,0.5,NNW,34.5,46.0,0.00,Fog-Snow,Snow,330,2009-03-01 22:51:00
5:54 PM,32.0,30.9,96,29.68,0.2,NNW,31.1,46.0,0.00,Fog-Snow,Heavy Snow,330,2009-03-01 22:54:00
6:07 PM,32.0,30.2,93,29.67,0.5,NNW,31.1,43.7,0.00,Fog-Snow,Snow,330,2009-03-01 23:07:00
6:19 PM,32.0,30.2,93,29.68,0.5,NNW,33.4,46.0,0.00,Fog-Snow,Snow,330,2009-03-01 23:19:00
6:54 PM,30.9,30.0,96,29.72,0.5,NNW,33.4,47.2,0.03,Fog-Snow,Snow,330,2009-03-01 23:54:00
7:04 PM,30.2,30.2,100,29.71,0.5,NNW,32.2,43.7,0.02,Fog-Snow,Heavy Snow,330,2009-03-02 00:04:00
7:54 PM,28.9,28.0,96,29.79,0.8,NNW,25.3,38.0,0.03,Snow,Heavy Snow,330,2009-03-02 00:54:00
8:51 PM,28.4,26.6,93,29.82,0.5,NNW,24.2,33.4,0.02,Fog-Snow,Heavy Snow,340,2009-03-02 01:51:00
8:54 PM,28.0,26.1,92,29.85,0.5,NNW,29.9,41.4,0.02,Fog-Snow,Heavy Snow,340,2009-03-02 01:54:00
9:05 PM,28.4,26.6,93,29.82,0.8,NNW,21.9,32.2,0.00,Snow,Heavy Snow,340,2009-03-02 02:05:00
9:54 PM,27.0,24.1,89,29.86,0.8,NNW,26.5,39.1,0.01,Snow,Light Snow,340,2009-03-02 02:54:00
10:01 PM,28.4,24.8,86,29.83,1.2,NNW,27.6,39.1,0.00,Snow,Light Snow,340,2009-03-02 03:01:00
10:06 PM,28.4,23.0,80,29.83,2.0,NNW,24.2,42.6,0.00,Snow,Light Snow,340,2009-03-02 03:06:00
10:23 PM,28.4,21.2,74,29.84,2.5,NNW,27.6,36.8,0.00,,Overcast,330,2009-03-02 03:23:00
10:30 PM,28.4,21.2,74,29.84,4.0,NNW,25.3,40.3,0.00,,Overcast,340,2009-03-02 03:30:00
10:54 PM,28.0,19.9,72,29.88,6.0,North,24.2,40.3,0.00,,Overcast,350,2009-03-02 03:54:00
11:54 PM,28.0,19.0,69,29.91,10.0,NNW,26.5,34.5,N/A,,Overcast,330,2009-03-02 04:54:00